TimeCDT,TemperatureF,Dew PointF,Humidity,Sea Level PressureIn,VisibilityMPH,Wind Direction,Wind SpeedMPH,Gust SpeedMPH,PrecipitationIn,Events,Conditions,WindDirDegrees,DateUTC
12:01 AM,71.6,71.6,100,30.00,1.8,NNW,2.3,-,N/A,,Clear,340,2013-09-04 05:01:00
12:06 AM,71.6,71.6,100,30.00,0.8,Calm,Calm,-,N/A,,Clear,0,2013-09-04 05:06:00
12:11 AM,71.6,71.6,100,30.00,0.5,Calm,Calm,-,N/A,Fog,Fog,0,2013-09-04 05:11:00
12:21 AM,71.6,71.6,100,30.00,1.0,Calm,Calm,-,N/A,,Clear,0,2013-09-04 05:21:00
12:26 AM,71.6,71.6,100,29.99,2.0,Calm,Calm,-,N/A,,Clear,0,2013-09-04 05:26:00
12:31 AM,71.6,71.6,100,29.99,4.0,Calm,Calm,-,N/A,,Clear,0,2013-09-04 05:31:00
12:41 AM,71.6,69.8,94,29.99,2.5,NNE,1.2,-,N/A,,Clear,20,2013-09-04 05:41:00
12:51 AM,71.6,69.8,94,29.99,5.0,Calm,Calm,-,N/A,,Clear,0,2013-09-04 05:51:00
12:58 AM,70.9,70.5,99,30.00,7.0,NE,1.2,-,N/A,,Clear,50,2013-09-04 05:58:00
1:58 AM,71.4,71.4,100,30.00,8.0,Calm,Calm,-,N/A,,Clear,0,2013-09-04 06:58:00
2:58 AM,70.2,69.8,99,29.99,8.0,NNE,1.2,-,N/A,,Clear,20,2013-09-04 07:58:00
3:58 AM,69.3,68.9,99,29.99,9.0,Calm,Calm,-,N/A,,Clear,0,2013-09-04 08:58:00
4:58 AM,69.4,69.3,99,30.00,6.0,Calm,Calm,-,N/A,,Clear,0,2013-09-04 09:58:00
5:58 AM,69.3,69.3,100,30.01,7.0,Calm,Calm,-,N/A,,Clear,0,2013-09-04 10:58:00
6:58 AM,68.9,68.5,99,30.03,7.0,North,1.2,-,N/A,,Clear,10,2013-09-04 11:58:00
7:58 AM,73.4,73.4,100,30.06,10.0,North,1.2,-,N/A,,Clear,360,2013-09-04 12:58:00
8:55 AM,78.3,77.5,98,30.07,10.0,Calm,Calm,-,N/A,,Scattered Clouds,0,2013-09-04 13:55:00
9:55 AM,82.4,77.4,85,30.07,10.0,NW,2.3,-,N/A,,Scattered Clouds,320,2013-09-04 14:55:00
10:55 AM,84.7,76.8,77,30.09,10.0,NW,5.8,-,N/A,,Scattered Clouds,320,2013-09-04 15:55:00
11:59 AM,86.5,74.3,67,30.07,10.0,NW,4.6,-,N/A,,Scattered Clouds,310,2013-09-04 16:59:00
12:55 PM,89.1,75.4,64,30.05,10.0,SW,4.6,-,N/A,,Scattered Clouds,230,2013-09-04 17:55:00
1:37 PM,87.8,75.2,66,30.06,10.0,SSW,9.2,-,N/A,Rain,Light Rain,210,2013-09-04 18:37:00
1:55 PM,87.4,74.7,66,30.05,10.0,South,8.1,-,0.00,,Mostly Cloudy,190,2013-09-04 18:55:00
2:28 PM,89.6,75.2,62,30.04,10.0,South,5.8,-,N/A,Thunderstorm,Thunderstorm,180,2013-09-04 19:28:00
2:55 PM,87.6,75.6,67,30.04,10.0,SW,6.9,-,N/A,,Mostly Cloudy,220,2013-09-04 19:55:00
3:08 PM,86.0,77.0,74,30.02,10.0,SW,4.6,-,N/A,Rain,Light Rain Showers,220,2013-09-04 20:08:00
3:26 PM,82.4,78.8,89,30.02,3.0,Variable,5.8,-,N/A,Rain,Light Rain Showers,0,2013-09-04 20:26:00
3:29 PM,82.4,77.0,84,30.03,2.0,ESE,8.1,-,N/A,Rain,Heavy Rain,120,2013-09-04 20:29:00
3:34 PM,78.8,73.4,83,30.03,0.8,ESE,13.8,-,N/A,Rain,Heavy Rain,120,2013-09-04 20:34:00
3:44 PM,77.0,73.4,89,30.03,1.0,SE,8.1,-,N/A,Rain-Thunderstorm,Light Thunderstorms and Rain,140,2013-09-04 20:44:00
3:47 PM,77.0,73.4,89,30.02,2.0,SE,8.1,-,N/A,Rain-Thunderstorm,Light Thunderstorms and Rain,140,2013-09-04 20:47:00
3:55 PM,77.4,74.3,90,30.03,10.0,ENE,8.1,-,0.68,Rain,Light Rain,60,2013-09-04 20:55:00
4:13 PM,77.0,75.2,94,30.01,10.0,SSE,4.6,-,N/A,Rain,Light Rain,150,2013-09-04 21:13:00
4:29 PM,78.8,77.0,94,30.01,10.0,SSE,4.6,-,N/A,,Mostly Cloudy,150,2013-09-04 21:29:00
4:55 PM,82.9,78.1,85,30.01,10.0,SSE,6.9,-,0.01,,Mostly Cloudy,160,2013-09-04 21:55:00
5:55 PM,83.3,76.5,80,30.03,10.0,South,8.1,-,N/A,,Mostly Cloudy,180,2013-09-04 22:55:00
6:55 PM,80.6,76.8,88,30.04,10.0,SSE,5.8,-,N/A,,Scattered Clouds,160,2013-09-04 23:55:00
7:55 PM,79.3,76.3,90,30.06,10.0,West,3.5,-,N/A,,Scattered Clouds,280,2013-09-05 00:55:00
8:55 PM,77.0,76.8,99,30.08,10.0,ESE,1.2,-,N/A,,Scattered Clouds,120,2013-09-05 01:55:00
9:55 PM,77.5,77.0,98,30.09,10.0,South,3.5,-,N/A,,Scattered Clouds,190,2013-09-05 02:55:00
10:55 PM,76.3,76.1,99,30.09,10.0,NNW,1.2,-,N/A,,Scattered Clouds,330,2013-09-05 03:55:00
11:55 PM,75.2,74.8,99,30.08,10.0,NNW,2.3,-,N/A,,Clear,340,2013-09-05 04:55:00